Location: Veytaux
(46.4185°N, 6.9320°E)
Time: 08:00:24
(UTC+00:00)

ERBS - Pass Details

Date: 27 May 2022
Orbit: 359 x 376 km, 57.0° (Epoch: 01 July)

Event Time Altitude Azimuth Distance (km) Brightness Sun altitude
Exits shadow 23:37:20 - 77° (ENE) 1,455 5.1 -22.3°
Enters shadow 00:35:00 -65° 232° (SW) 11,983 9.6 -20.7°
Maximum altitude 01:09:52 43° 327° (NNW) 526 2.9 -18.6°
